STARLINK-34735 (65072 NORAD) Tracking and Keplerian Element Data

This shows tracking and keplerian element data for the satellite.

Feedback or suggestion? Click here.




ElementValue
Catalog65072
NameSTARLINK-34735
Epoch Orbit2282
Epoch Day354.15048687
Epoch Year2025
RAAN68.8482
Inclination97.606
Eccentricity6.66E-05
Argument of Perigee109.0588
Mean Anonmoly251.0711
Mean Motion15.05650391
Decay Rate2.146E-05
L11 65072U 25165S 25354.15048687 .00002146 00000+0 15287-3 0 9995
L22 65072 97.6060 68.8482 0000666 109.0588 251.0711 15.05650391 22821



Live tracking and technical data element details for STARLINK-34735 (NORAD 65072). STARLINK-34735 can be tracked NOW for your location showing map with azimuth and elevation plus other details from your city location.







IsCatalogInMostPopularTable: catalog: 65072, numindb: 4
Update: records affected: 1



GetName: 65072 STARLINK-34735

Hit Count: updated at: Sat, 07 Feb 2026 07:13:11 GMT